User: anonymous   Login
Location: Kapla
(46.2483°N, 15.0094°E)
Time: 02:53:59
(UTC+00:00)
Language:

FALCON 9 DEB - Orbit

View from above orbital plane
View from above orbital plane
View from above satellite
View from above satellite

Ground track
Ground track

The orbit data is extracted from the following two-line orbital elements,

1 46087U 20055BN  21137.57603226  .00014708  00000-0  14998-3 0  9996
2 46087  53.0072 346.8043 0012595 123.0924 237.1301 15.65301977 48862
Epoch (UTC): 17 May 2021 13:49:29
Eccentricity: 0.0012595
inclination: 53.0072°
perigee height: 364 km
apogee height: 381 km
right ascension of ascending node: 346.8043°
argument of perigee: 123.0924°
revolutions per day: 15.65301977
mean anomaly at epoch: 237.1301°
orbit number at epoch: 4886

The dashed part of the orbit path shows where the satellite is in the earth's shadow,  

DLR